Regional Weather Roundup
Issued by NWS Kansas City/Pleasant Hill, MO

Home | Current Version | Previous Version | Graphics & Text | Print | Product List | Glossary Off
Versions: 1 2 3 4 5 6 7 8 9 10 11 12 13 14 15 16 17 18 19 20 21 22 23 24 25 26 27 28 29 30 31 32 33 34 35 36 37 38 39 40 41 42 43 44 45 46 47 48 49 50

000
ASUS43 KEAX 191010
RWREAX

WEATHER ROUNDUP FOR EASTERN KANSAS AND NORTHWEST MISSOURI
NATIONAL WEATHER SERVICE KANSAS CITY/PLEASANT HILL MO
500 AM CDT FRI SEP 19 2014

KSZ040-057-103>105-MOZ028-029-037-043-191100-
...KANSAS CITY METROPOLITAN AREA...

CITY           SKY/WX    TMP DP  RH WIND       PRES   REMARKS
K.C. INTL      CLOUDY    62  61  96 SE12      30.00F FOG
K.C. DOWNTOWN  CLOUDY    64  61  90 SE8       30.00F
LEES SUMMIT    CLOUDY    62  60  93 SE8       30.02S FOG
OLATHE - IXD   CLOUDY    61  61 100 SE10      30.01S FOG
OLATHE - OJC   FOG       60  60 100 S8        30.00S VSB 1
LAWRENCE       CLOUDY    60  59  96 E6        29.99F FOG

$$

MOZ001>008-011>017-020>025-030>033-038>040-044>046-053-054-191100-
...NORTHERN AND CENTRAL MISSOURI...

CITY           SKY/WX    TMP DP  RH WIND       PRES   REMARKS
ST. JOSEPH     CLOUDY    61  60  97 SE6       30.00S FOG
MOSBY          CLOUDY    61  61 100 SE6       30.02S FOG
WHITEMAN AFB   CLOUDY    57  57  98 SE5       30.03S FOG
CLINTON        FOG       59  59 100 CALM      30.03S VSB 1/4
SEDALIA        FOG       59  58  96 SE8       30.04S VSB 1/4
WARSAW         NOT AVBL
MARSHALL       FOG       61  61 100 SE3       30.05S VSB 1/4
CHILLICOTHE      N/A     58  56  93 S3        30.05R
MOBERLY        CLEAR     55  52  88 SE3       30.07R
KIRKSVILLE     CLEAR     52  50  93 SE6       30.07R

$$

MOZ041-047>049-056>058-063>065-088>090-097-191100-
...EASTERN AND SOUTHERN MISSOURI...

CITY           SKY/WX    TMP DP  RH WIND       PRES   REMARKS
ST. LOUIS INTL CLEAR     57  53  86 SE5       30.08S
SPIRIT OF STL  CLEAR     52  51  97 CALM      30.07S FOG
COLUMBIA       CLEAR     58  55  90 E7          N/A
JEFFERSON CITY CLEAR     55  54  96 CALM      30.05S FOG
MEXICO         CLEAR    N/A N/A N/A E3        30.07R FOG
HANNIBAL       CLEAR     55  54  94 CALM      30.08S
ROLLA          CLEAR     56  54  93 E6        30.05R FOG
LEBANON        FOG       55  55 100 CALM      30.06R VSB 1/4
OSAGE BEACH    CLOUDY    55  54  94 CALM      30.05S VSB 1/2
SPRINGFIELD    CLEAR     62  59  90 S7        30.02S
BRANSON        MOCLDY    63  63 100 CALM      30.04S FOG
NEVADA         PTCLDY    59  57  94 E5        30.02R FOG
JOPLIN         CLEAR     63  61  93 SE7       30.00S
WEST PLAINS    FOG       55  54  96 NE3       30.05S VSB 3/4

$$

IAZ060-094-KSZ022-034>040-054-083-096-NEZ052-066-093-191100-
...KANSAS...SOUTHEAST NEBRASKA AND IOWA...

CITY           SKY/WX    TMP DP  RH WIND       PRES   REMARKS
TOPEKA         CLOUDY    63  62  97 E5        29.99S
MANHATTAN      CLEAR     62  61  96 CALM      29.95F
EMPORIA        MOCLDY    62  61  96 SE5       29.98S
CHANUTE        PTCLDY    63  62  97 SE9       29.99R
WICHITA        CLEAR     65  62  90 S6        29.95S
OMAHA          CLOUDY    63  59  87 S15       29.95F
LINCOLN        CLOUDY    64  61  90 S12       29.95S
FALLS CITY     CLOUDY    61  61 100 SE7       29.97F FOG
LAMONI         CLEAR     56  54  93 S5        30.02F
DES MOINES     PTCLDY    58  53  84 SE9       30.01F

$$




USA.gov is the U.S. government's official web portal to all federal, state and local government web resources and services.